GEFSNGP_850_meantemp_228.txt.gz
Temperature
30 30 31 30 30 30 30 31 31 31 31 31 30 30 28 27 26 25 24 23 23 22 22 21 21 21 21 20 20 20 20 19 19 18 18 18 17 17 17 17 16 16 16 16
28 29 30 30 30 30 30 31 31 31 31 31 30 29 28 27 26 25 24 23 22 22 21 21 21 21 21 20 20 20 19 19 18 18 18 17 17 16 16 16 16 16 15 15
28 29 29 28 30 30 30 30 31 30 30 30 29 28 27 26 25 25 24 23 22 22 21 21 21 21 21 20 20 20 19 19 18 18 18 17 16 16 16 16 15 15 15 15
28 27 26 29 30 30 30 30 30 30 30 29 29 28 27 26 25 25 24 23 22 22 21 21 21 21 21 20 20 19 19 19 18 18 17 17 16 16 16 15 15 15 15 14
27 27 27 28 28 29 29 29 29 29 29 29 28 28 27 25 25 24 23 23 22 22 22 21 21 21 21 20 20 19 19 19 18 18 17 17 16 16 16 15 15 15 14 14
26 27 27 28 28 28 29 28 28 28 28 28 27 29 29 25 24 23 23 22 22 22 21 21 21 21 20 20 20 19 19 18 18 17 17 17 16 16 15 15 15 14 14 14
26 26 28 27 27 27 27 27 26 26 26 26 27 27 25 24 23 22 22 22 21 21 21 21 21 20 20 20 19 19 19 18 18 17 17 16 16 16 15 15 14 14 14 14
26 26 26 25 26 27 26 24 24 25 25 24 24 24 23 23 22 22 21 21 21 21 20 20 20 20 20 19 19 19 18 18 18 17 17 16 16 15 15 15 14 14 14 13
26 25 23 23 24 23 22 23 23 23 23 23 23 23 22 22 21 21 20 21 20 20 20 20 20 20 19 19 19 18 18 18 17 17 16 16 16 15 15 15 14 14 14 13
23 23 22 22 21 21 21 21 21 22 22 22 22 22 21 21 20 20 20 20 20 19 20 20 19 19 19 19 18 18 18 17 17 16 16 16 15 15 14 14 14 14 14 13
22 22 21 21 20 20 20 20 21 21 21 21 21 21 21 20 20 19 19 19 19 19 19 19 19 19 18 18 18 17 17 17 16 16 15 15 15 14 14 14 14 14 14 13
23 21 22 20 19 19 19 20 20 20 20 20 20 20 20 20 19 19 19 19 19 19 18 18 18 18 18 18 17 17 16 16 16 15 15 15 14 14 14 14 14 14 13 13
19 19 19 18 18 18 19 19 19 19 19 19 19 19 19 19 19 19 19 19 18 18 18 18 18 18 18 17 17 17 16 16 15 15 15 15 14 14 14 14 14 13 13 13
17 17 18 18 18 18 18 18 18 18 18 19 19 19 19 18 18 18 18 18 18 17 17 17 17 17 17 17 17 16 16 15 15 15 15 14 14 14 14 13 13 13 13 13
17 17 17 17 17 17 17 18 18 18 18 18 18 18 18 18 17 17 17 17 17 17 17 17 17 16 16 16 16 16 16 15 15 15 14 14 14 14 13 13 13 12 12 12
16 16 17 17 17 17 17 18 18 18 17 17 17 17 17 17 17 17 16 16 16 16 16 16 16 16 16 16 16 16 15 15 15 14 14 14 14 13 13 13 13 12 12 12
16 17 17 17 17 17 17 17 17 17 16 16 16 16 16 16 16 15 15 16 16 16 16 15 15 15 15 15 15 15 15 15 15 14 14 14 13 13 13 13 13 12 12 12
15 16 16 16 16 16 16 16 16 16 16 16 16 15 15 15 15 15 15 15 15 15 15 15 15 15 15 15 15 15 14 14 14 14 14 14 13 13 13 12 12 12 12 11
15 15 15 15 15 15 16 15 15 15 15 15 15 15 15 15 15 15 14 14 14 14 14 14 15 15 15 14 14 14 14 14 14 14 13 13 13 13 13 12 12 12 12 11
14 14 15 15 14 15 15 14 15 15 15 15 15 15 14 14 14 14 14 14 14 14 14 14 14 14 14 14 14 14 14 14 14 13 13 13 13 13 12 12 12 11 11 11
14 14 14 14 14 14 14 14 14 14 14 14 14 14 14 14 14 14 14 14 13 13 13 13 13 13 13 13 13 13 13 13 13 13 13 13 13 12 12 12 11 11 11 11
13 13 13 13 13 13 13 13 13 14 14 14 14 14 13 13 13 13 13 13 13 13 13 13 13 13 13 13 13 13 13 13 13 13 13 13 12 12 12 12 11 11 11 10
12 12 12 12 12 12 13 13 13 13 13 13 13 13 13 13 13 13 13 13 13 13 13 13 13 13 13 13 13 13 13 13 13 13 13 12 12 12 11 11 11 11 11 10
12 12 12 12 12 12 12 12 12 13 13 13 13 13 13 13 13 13 13 13 13 12 12 12 13 13 13 12 12 12 12 12 12 12 12 12 12 11 11 11 11 10 10 10
11 11 11 11 12 12 12 12 12 12 12 12 12 12 12 12 12 12 12 12 12 12 12 12 12 12 12 12 12 12 12 12 12 12 12 11 11 11 11 11 10 10 10 10
11 11 11 11 11 12 12 12 12 12 12 12 12 12 12 12 12 12 12 12 11 12 12 11 11 11 11 11 11 11 11 11 11 11 11 11 11 11 10 10 10 10 10 10
11 11 11 11 11 11 12 12 12 12 12 12 12 12 11 11 11 11 11 11 11 11 11 11 11 11 11 11 11 11 11 11 11 11 11 11 10 10 10 10 10 10 10 10

GEFSNGP_850_meantemp_234.txt.gz
Temperature
32 33 33 33 33 33 33 33 32 32 32 32 32 33 32 31 30 29 28 27 26 25 24 24 23 22 22 21 21 20 20 19 19 19 19 18 18 18 18 17 17 17 17 16
30 32 33 32 33 33 33 33 33 33 32 33 33 32 31 30 29 29 27 27 26 25 24 23 23 22 22 21 21 20 20 19 19 19 19 18 18 18 17 17 17 17 16 16
29 31 31 31 32 33 33 33 33 32 32 33 32 31 31 30 29 28 27 26 25 24 23 23 22 22 22 21 21 20 20 19 19 19 18 18 18 17 17 17 17 16 16 16
28 29 28 31 33 33 33 33 33 33 33 33 32 31 30 29 28 28 27 26 25 24 23 23 22 22 22 21 20 20 20 19 19 19 18 18 17 17 17 17 16 16 16 16
28 28 29 31 32 33 32 32 33 33 33 33 32 31 29 28 28 27 26 25 25 24 23 23 22 22 21 21 20 20 20 19 19 19 18 18 17 17 17 17 16 16 16 16
27 27 27 29 32 33 32 30 33 33 32 32 31 30 29 28 27 27 26 25 24 24 23 23 22 21 21 20 20 20 19 19 19 19 18 18 18 17 17 16 16 15 15 15
26 27 28 30 31 32 29 29 31 31 31 31 30 29 28 27 27 26 25 24 24 23 23 22 22 21 21 20 20 20 19 19 18 18 18 18 17 17 17 16 15 15 15 15
26 26 27 30 30 29 28 28 29 29 29 28 28 28 27 26 26 25 24 23 23 23 22 22 21 21 20 20 20 19 19 18 18 18 18 17 17 17 16 16 15 15 15 15
26 27 27 28 27 27 27 27 27 28 27 27 27 27 26 25 25 24 23 23 22 22 21 21 20 20 20 20 19 19 19 18 18 18 17 17 17 17 16 16 15 15 15 14
26 26 27 26 26 26 26 26 26 26 26 26 26 26 25 24 24 23 22 22 22 21 20 20 20 20 20 19 19 19 18 18 18 17 17 17 16 16 16 15 15 15 14 14
25 25 25 25 25 25 25 25 25 25 25 25 25 24 24 23 23 22 21 21 21 20 20 20 19 19 19 19 19 18 18 18 17 17 17 16 16 16 16 16 15 15 15 14
24 25 25 24 24 24 24 24 24 24 24 24 24 23 23 22 22 21 21 20 20 20 19 19 19 19 19 18 18 18 18 17 17 17 16 16 16 15 15 15 15 15 15 14
23 23 24 23 23 23 23 23 23 23 23 23 22 22 22 21 21 20 20 20 19 19 19 19 18 18 18 18 18 18 18 17 17 16 16 16 16 15 15 15 15 15 14 14
21 22 22 22 22 22 22 22 22 22 22 22 22 21 21 21 20 20 19 19 19 19 19 18 18 17 17 17 17 17 17 17 17 16 16 16 16 15 15 15 15 15 14 14
20 21 21 21 21 21 21 22 22 22 22 21 21 21 20 20 19 19 19 18 18 18 18 18 18 17 17 17 17 17 17 17 16 16 16 16 15 15 15 15 15 14 14 14
20 20 20 21 21 21 21 21 21 21 21 20 20 20 19 19 19 18 18 18 18 17 17 17 17 17 17 17 17 16 16 16 16 16 16 15 15 15 15 15 15 14 14 14
19 20 20 20 20 20 20 20 20 20 20 20 19 19 19 18 18 18 17 17 17 17 17 17 16 16 16 16 16 16 16 16 16 16 16 15 15 15 15 15 15 14 14 14
19 19 19 19 19 19 19 19 19 19 19 19 18 18 18 18 17 17 17 17 17 16 16 16 16 16 16 16 15 15 16 16 16 15 15 15 15 15 15 15 14 14 14 13
18 18 18 18 18 18 18 18 18 18 18 18 18 17 17 17 17 17 16 16 16 16 16 16 16 16 15 15 15 15 15 15 15 15 15 15 15 15 14 14 14 14 13 13
17 17 17 17 17 17 17 17 17 17 17 17 17 17 16 16 16 16 16 16 16 16 16 16 15 15 15 15 15 15 15 15 15 15 15 14 14 14 14 14 14 13 13 13
16 16 16 16 16 16 17 16 16 16 16 16 16 16 16 16 15 15 15 15 15 15 15 15 15 15 15 15 15 15 15 15 15 15 14 14 14 14 13 13 13 13 13 12
15 15 15 15 16 16 16 16 16 16 15 15 15 15 15 15 15 15 15 15 15 15 15 15 15 15 14 14 15 15 15 15 15 14 14 14 14 13 13 13 13 13 12 12
14 14 14 15 15 15 15 15 15 15 15 15 15 15 15 15 15 15 15 15 15 14 14 14 14 14 14 14 14 14 14 14 14 14 14 13 13 13 13 13 12 12 12 12
13 13 13 14 14 14 14 14 14 14 14 14 14 14 14 14 14 14 14 14 14 14 14 14 14 14 14 14 13 14 14 14 14 13 13 13 13 13 12 12 12 12 12 12
13 13 13 13 13 13 13 14 14 14 14 14 14 14 14 14 14 14 14 14 14 14 13 13 13 13 13 13 13 13 13 13 13 13 13 13 13 12 12 12 12 12 12 11
12 12 13 13 13 13 13 13 14 13 13 13 13 13 13 13 13 13 13 13 13 13 13 13 13 13 13 13 13 13 13 13 13 13 13 13 12 12 12 12 12 11 11 11
12 12 12 13 13 13 13 13 13 13 13 13 13 13 13 13 13 13 13 13 13 13 13 13 12 12 12 12 12 12 12 12 12 12 12 12 12 12 12 11 11 11 11 10

GEFSNGP_850_meantemp_240.txt.gz
Temperature
23 25 26 26 27 26 25 23 23 23 24 24 24 24 24 25 25 24 24 24 24 24 23 23 23 23 22 22 22 21 21 20 20 20 19 19 18 18 18 18 17 17 17 17
24 26 26 26 27 27 26 25 25 25 24 24 25 25 25 25 25 24 24 24 24 24 23 23 23 23 22 22 22 21 21 20 20 20 19 19 18 18 18 17 17 17 17 16
22 24 25 25 25 26 26 25 25 24 24 23 23 23 24 25 25 25 24 24 24 24 24 23 23 23 23 22 22 21 21 20 20 19 19 19 18 18 18 17 17 17 16 16
20 23 24 23 24 26 26 26 25 24 24 23 23 24 25 25 25 25 24 24 24 24 23 23 23 23 22 22 21 21 21 20 20 19 19 19 18 18 17 17 17 16 16 16
18 21 22 24 25 25 25 24 24 24 23 23 24 24 23 25 25 25 25 25 25 24 24 23 23 22 22 22 21 21 21 20 20 19 19 19 18 18 17 17 16 16 16 15
18 21 22 22 24 26 25 23 23 23 23 23 23 21 22 24 25 25 25 25 25 24 24 23 23 22 22 21 21 21 21 20 20 19 19 19 18 18 17 17 17 16 15 15
18 20 20 22 24 25 23 22 23 23 23 23 23 23 24 24 24 25 25 25 25 24 24 23 23 22 22 21 21 21 20 20 20 19 19 18 18 18 17 17 16 16 15 15
17 19 20 22 23 22 21 23 24 24 24 24 24 24 24 24 24 24 24 24 24 24 23 23 22 22 22 22 21 21 20 19 19 19 18 18 17 17 17 16 16 15 15 15
18 18 20 22 23 24 24 23 23 24 24 24 24 23 23 23 23 23 23 23 23 23 23 22 22 22 22 21 21 20 20 19 19 19 18 18 17 17 16 16 16 15 15 15
18 19 20 22 23 23 24 24 24 24 24 24 24 23 23 23 22 22 23 23 22 22 22 22 21 21 21 21 20 20 19 19 19 18 18 17 17 17 16 16 16 16 15 15
17 18 19 21 22 22 23 23 24 24 24 24 24 23 23 22 22 22 22 22 22 22 22 21 21 21 20 20 20 20 19 19 18 18 18 17 17 17 16 16 16 16 16 15
16 17 17 19 21 21 22 22 23 23 22 23 23 23 22 22 22 21 21 21 21 21 21 21 20 20 20 20 19 19 19 18 18 18 17 17 17 16 16 16 15 15 15 15
19 19 20 20 20 21 21 21 22 22 22 22 22 22 22 21 21 21 21 20 20 20 20 20 19 19 19 19 19 19 18 18 18 17 17 17 16 16 16 15 15 15 15 14
19 19 19 19 20 20 20 21 21 21 21 21 21 21 21 21 20 20 20 20 20 19 19 19 19 18 18 18 18 18 18 18 18 17 17 17 16 16 16 15 15 15 14 14
19 19 19 19 19 20 20 20 20 20 20 20 20 20 20 20 20 19 19 19 19 19 18 18 18 18 18 18 18 17 17 17 17 17 16 16 16 16 15 15 15 15 14 14
18 18 18 18 18 19 19 19 19 19 19 19 19 19 19 19 19 19 19 18 18 18 18 18 18 17 17 17 17 17 17 17 17 16 16 16 16 15 15 15 15 14 14 14
17 17 17 17 17 18 18 18 19 18 18 18 18 18 18 18 18 18 18 18 18 18 17 17 17 17 17 17 17 17 16 16 16 16 15 15 15 15 15 15 14 14 14 14
17 17 17 17 17 17 17 18 18 18 18 18 17 17 17 18 18 17 17 17 17 17 17 17 17 16 16 16 16 16 16 16 15 15 15 15 15 15 15 14 14 14 14 14
16 17 17 17 17 17 17 17 17 17 17 17 17 17 17 17 17 17 17 17 17 17 16 16 16 16 16 16 16 16 15 15 15 15 14 14 14 14 14 14 14 14 14 13
16 16 16 16 17 16 16 16 16 16 16 16 16 16 16 16 16 16 16 16 16 16 16 16 16 16 16 15 15 15 15 15 15 14 14 14 14 14 14 14 14 13 13 13
15 15 16 16 16 16 16 16 16 16 15 16 16 16 15 15 15 15 15 15 15 15 15 15 15 15 15 15 15 15 15 14 14 14 14 14 14 14 14 13 13 13 13 13
14 15 15 15 15 15 15 15 15 15 15 15 15 15 15 15 15 15 15 15 15 15 15 15 15 15 15 15 14 14 14 14 14 14 14 14 14 13 13 13 13 13 13 12
14 14 14 14 14 14 14 14 14 14 14 14 14 14 14 14 14 14 14 14 14 14 14 14 14 14 14 14 14 14 14 14 13 13 13 14 14 13 13 13 13 12 12 12
14 14 14 13 13 13 13 14 14 14 14 14 14 14 14 14 14 14 14 14 14 14 14 14 14 14 14 14 13 13 13 13 13 13 13 13 13 13 13 13 13 12 12 12
13 13 13 13 13 13 13 13 13 13 13 13 13 13 13 13 13 13 13 13 13 13 13 13 13 13 13 13 13 13 13 13 13 13 13 13 13 13 12 12 12 12 12 11
12 13 13 13 13 13 13 13 13 13 13 13 13 13 13 13 13 13 13 13 13 13 13 13 13 13 13 13 13 13 13 13 12 12 12 12 12 12 12 12 11 11 11 11
12 12 12 12 12 12 12 12 12 12 12 12 12 12 12 12 12 12 12 12 13 12 12 12 12 12 12 12 12 12 12 12 12 12 12 12 12 12 11 11 11 11 11 11

GEFSNGP_850_meantemp_246.txt.gz
Temperature
20 21 22 23 22 21 21 20 20 21 21 22 21 21 21 22 23 23 23 23 24 24 23 23 23 23 22 22 22 21 20 20 20 19 19 19 18 18 18 17 17 17 17 16
21 21 22 23 22 22 22 21 21 22 21 21 21 22 21 22 22 22 23 23 24 24 24 23 23 23 23 22 22 21 21 20 20 19 19 19 18 18 18 17 17 17 17 16
19 21 22 22 22 22 22 21 22 22 22 21 20 20 21 22 22 23 24 24 24 24 24 23 23 23 23 22 22 21 21 20 20 19 19 19 18 18 18 17 17 17 17 16
17 20 21 21 21 22 22 22 21 22 21 20 21 22 22 23 23 24 25 25 24 24 24 24 23 23 23 22 22 21 21 20 20 19 19 19 18 18 18 17 17 17 17 16
16 19 20 21 21 21 21 21 20 20 20 20 21 21 21 23 24 24 25 25 25 24 24 24 23 23 22 22 22 21 21 21 20 20 19 19 18 18 18 17 17 17 16 16
16 19 20 21 21 21 22 22 20 20 19 19 20 20 21 24 24 24 24 24 24 24 24 23 23 22 22 22 22 21 21 21 20 19 19 19 18 18 18 17 17 16 16 16
16 18 18 19 20 21 21 21 21 20 20 19 20 22 24 24 24 24 24 24 24 23 23 23 23 22 22 22 21 21 21 20 19 19 19 18 18 18 17 17 16 16 16 15
15 18 19 19 19 20 19 21 21 21 21 21 22 23 23 24 24 24 23 23 23 23 23 23 23 22 22 21 21 21 20 20 19 19 19 18 18 17 17 17 16 16 16 15
15 16 17 18 19 20 21 21 21 21 21 22 21 22 23 23 23 23 23 23 23 23 22 22 22 22 21 21 21 20 20 20 19 19 18 18 18 17 17 16 16 16 16 15
14 15 16 18 19 20 21 21 21 22 22 22 21 21 22 22 22 22 22 22 22 22 22 22 21 21 21 21 21 20 20 19 19 18 18 18 17 17 17 16 16 16 16 15
14 15 16 18 19 20 20 21 21 21 21 21 21 21 22 22 22 22 22 21 21 21 21 21 21 20 20 20 20 20 19 19 18 18 18 17 17 17 17 16 16 16 16 15
14 15 15 17 19 19 20 20 21 21 20 20 21 21 21 21 21 21 21 21 21 21 21 20 20 20 20 19 19 19 19 18 18 17 17 17 17 16 16 16 16 15 15 15
16 17 17 18 19 19 19 20 20 20 20 20 20 21 21 20 20 20 20 20 20 20 20 19 19 19 19 19 19 19 18 18 17 17 17 17 16 16 16 15 15 15 15 15
17 17 17 17 18 19 19 19 19 19 19 20 20 20 20 20 20 20 19 19 19 19 19 19 19 19 19 19 18 18 18 18 17 17 17 16 16 16 16 15 15 15 15 14
16 17 17 17 18 18 18 18 18 18 19 19 19 19 19 19 19 19 19 19 19 19 19 18 18 18 18 18 18 17 17 17 17 17 16 16 16 16 15 15 15 15 14 14
16 16 17 17 17 17 17 18 18 18 18 18 18 18 18 18 18 18 18 18 18 18 18 18 18 18 17 17 17 17 17 16 16 16 16 15 15 15 15 15 15 14 14 14
15 15 16 16 16 17 17 17 17 17 17 17 18 18 17 17 17 17 17 17 17 17 17 17 17 17 17 16 16 16 16 16 16 15 15 15 15 15 15 14 14 14 14 14
16 16 16 16 16 16 16 16 16 17 17 17 17 17 17 17 17 17 16 16 16 16 16 17 16 16 16 16 16 16 15 15 15 15 15 14 14 14 14 14 14 14 13 13
15 16 16 16 16 16 16 16 16 16 16 16 16 16 16 16 16 16 16 16 16 16 16 16 16 16 15 15 15 15 15 15 15 15 14 14 14 14 14 14 13 13 13 13
15 15 15 15 15 15 15 15 16 16 16 16 15 15 15 15 15 15 15 15 15 15 15 15 15 15 15 15 15 15 14 14 14 14 14 13 13 13 13 13 13 13 13 13
14 15 15 15 15 15 15 15 15 15 15 15 15 15 15 14 15 15 15 15 15 15 15 15 15 14 14 14 14 14 14 14 14 13 13 13 13 13 13 13 13 13 13 13
14 14 14 14 14 14 14 14 14 14 14 14 14 14 14 14 14 14 14 14 14 14 14 14 14 14 14 14 14 14 14 14 13 13 13 13 13 13 13 13 13 12 12 12
14 14 14 14 14 14 14 14 14 14 14 14 14 14 14 14 13 13 13 14 14 13 13 14 14 14 14 13 13 13 13 13 13 13 13 13 13 12 12 12 12 12 12 12
13 13 13 13 13 13 13 13 13 13 13 13 13 13 13 13 13 13 13 13 13 13 13 13 13 13 13 13 13 13 13 13 13 13 12 12 12 12 12 12 12 12 12 12
13 13 13 13 13 13 13 13 13 13 13 13 13 13 13 13 13 13 13 13 13 13 13 13 13 13 13 13 13 13 13 12 12 12 12 12 12 12 12 12 11 11 11 11
12 12 12 12 12 12 12 12 12 12 12 12 12 12 12 12 12 12 12 12 12 12 12 12 12 12 12 12 12 12 12 12 12 12 12 11 11 12 11 11 11 11 11 10
12 12 12 12 12 12 12 12 12 12 12 12 12 12 12 12 12 12 12 12 12 12 12 12 12 12 12 12 12 12 12 11 11 11 11 11 11 11 11 11 11 11 10 10

GEFSNGP_850_meantemp_252.txt.gz
Temperature
30 30 30 30 30 30 30 31 31 31 31 31 31 31 29 28 27 26 25 24 24 23 22 22 22 21 21 21 21 21 20 20 19 19 19 19 19 18 18 18 18 18 17 17
28 29 30 29 30 30 30 31 31 31 31 31 30 29 28 27 26 26 25 24 23 23 22 22 21 21 21 21 21 21 20 20 20 19 19 19 19 18 18 18 18 18 17 17
28 29 29 28 30 30 30 30 31 31 31 30 29 29 28 27 26 25 25 24 23 22 22 22 22 21 21 21 21 21 21 20 20 20 19 19 19 18 18 18 18 18 17 17
28 27 27 29 30 30 30 30 30 30 30 30 29 28 27 26 26 25 24 24 23 23 22 22 22 21 21 21 21 21 21 20 20 19 19 19 19 19 19 18 18 18 17 17
27 27 28 28 28 29 29 29 29 29 29 29 27 28 27 25 25 24 24 24 23 23 22 22 21 21 21 21 21 21 21 21 20 20 19 19 19 19 18 18 18 17 17 17
26 27 27 28 28 28 28 28 28 28 28 27 27 29 28 25 24 24 23 23 23 22 22 22 22 21 21 21 21 21 21 21 20 20 19 19 19 19 18 18 17 17 16 16
26 26 27 27 27 27 27 27 27 27 27 26 27 27 26 24 23 23 23 22 22 22 22 22 21 21 21 21 21 21 21 20 20 20 19 19 19 18 18 17 17 17 16 16
26 26 26 25 26 27 26 25 25 25 25 25 25 24 23 23 22 22 22 22 22 21 21 21 21 21 21 21 21 21 20 20 20 19 19 18 18 18 18 17 17 16 16 15
25 25 24 23 24 24 23 24 24 24 24 24 23 23 22 22 21 21 21 21 21 21 21 21 21 21 21 21 20 20 20 20 19 19 19 18 18 18 17 17 16 16 16 15
23 23 23 22 22 22 22 22 22 23 23 23 22 22 21 21 20 20 20 20 20 20 20 20 20 20 20 20 20 20 20 19 19 18 18 18 17 17 17 17 16 16 16 15
22 22 22 22 22 21 21 21 21 22 22 22 22 21 21 20 20 20 20 20 20 19 19 20 20 20 19 19 19 19 19 19 18 18 18 17 17 17 17 17 17 16 16 16
23 22 22 22 21 20 20 20 21 21 21 21 21 20 20 20 19 19 19 19 19 19 19 19 19 19 19 18 18 18 18 18 17 17 17 17 17 17 17 17 16 16 16 16
20 20 20 20 20 20 20 20 20 20 20 20 20 20 19 19 19 19 19 18 18 18 18 18 18 18 18 18 18 18 18 17 17 17 17 17 17 17 16 16 16 16 16 16
18 18 19 19 19 19 19 19 19 19 19 19 19 19 18 18 18 18 18 18 18 18 18 18 18 17 17 17 17 17 17 17 17 17 17 17 17 16 16 16 16 16 16 15
17 18 18 18 18 18 18 18 18 18 18 18 18 18 17 18 17 17 17 17 17 17 17 17 17 17 17 17 17 17 16 16 16 16 16 16 16 16 16 16 15 15 15 15
17 17 17 17 17 17 17 18 18 18 18 17 17 17 17 17 17 17 17 17 17 17 17 17 17 17 17 16 16 16 16 16 16 16 16 16 16 16 16 15 15 15 15 14
16 17 17 17 17 17 17 17 17 17 17 17 16 16 16 16 16 16 16 16 16 16 16 16 16 16 16 16 16 16 16 16 16 16 16 16 15 15 15 15 15 15 14 14
16 16 16 16 16 16 16 16 16 16 16 16 16 15 15 15 15 15 15 15 15 15 15 15 15 15 16 16 16 16 16 16 15 15 15 15 15 15 15 14 14 14 14 14
15 16 16 16 16 16 16 16 15 15 15 15 15 15 15 15 15 15 15 15 15 15 15 15 15 15 15 15 15 15 15 15 15 15 15 14 14 14 14 14 14 14 14 13
15 15 15 15 15 15 15 15 15 15 15 15 15 15 14 14 14 14 14 14 14 14 14 14 14 14 14 15 15 15 15 15 15 14 14 14 14 14 14 14 14 14 13 13
14 14 14 14 14 14 15 14 14 14 14 14 14 14 14 14 14 14 14 14 14 14 14 14 14 14 14 14 14 14 14 14 14 14 14 14 14 14 13 13 13 13 13 13
13 13 13 14 14 14 14 14 14 14 14 14 14 14 14 14 14 13 14 14 14 14 14 14 14 14 14 14 14 14 14 14 14 14 14 13 13 13 13 13 13 12 12 12
13 13 13 13 13 13 13 13 13 13 13 13 13 13 13 13 13 13 13 14 14 14 13 13 13 13 13 13 13 13 13 13 13 13 13 13 13 13 13 12 12 12 12 12
13 13 13 13 13 13 13 13 13 13 13 13 13 13 13 13 13 13 13 13 13 13 13 13 13 13 13 13 13 13 13 13 13 13 13 13 13 12 12 12 12 12 12 11
12 12 12 12 12 13 13 12 12 13 13 13 13 13 13 13 13 13 13 13 12 12 12 12 13 13 13 13 13 13 13 13 13 13 13 12 12 12 12 12 12 11 11 11
12 12 12 12 12 12 13 13 13 13 13 13 13 13 12 12 12 12 12 12 12 12 12 12 12 12 12 12 12 12 12 12 12 12 12 12 12 12 11 11 11 11 11 10
12 12 12 12 12 12 12 12 12 12 12 12 12 12 12 12 12 12 11 12 12 12 12 12 12 12 12 12 12 12 12 12 12 12 12 11 11 11 11 11 11 10 10 10